Flag for Canada Weather past 2 weeks in Prince Albert, Saskatchewan, Canada

Now
46 °F

Scattered clouds.


Feels Like: 40 °F
Forecast: 30 / 52 °F
Wind: 15 mph from Northeast

Location: Prince Albert

Current Time: Apr 19, 2015 at 7:39:52 PM

Latest Report: Apr 19, 2015 at 7:00 PM


Visibility: 15 mi

Pressure: 30.11 "Hg

Humidity: 27%

Dew point: 14 °F

Location of Prince AlbertLocation

Historic Weather in Prince Albert — Graph

°F

Prince Albert temperature yesterday

Maximum temperature yesterday: 52 °F (at 12:00 PM)
Minimum temperature yesterday: 37 °F (at 7:00 AM)
Average temperature yesterday: 47 °F

Past Weeks' High & Low Weather Summary

 TemperatureHumidityPressure
High66 °F (Apr 10, 3:00 PM)100% (Apr 8, 7:00 AM)30.28 "Hg (Apr 8, 7:00 AM)
Low18 °F (Apr 5, 1:00 AM)13% (Apr 19, 3:00 PM)29.21 "Hg (Apr 11, 6:00 PM)
Average41 °F53%29.95 "Hg
* Reported Apr 4 6:00 PM — Apr 19 6:00 PM, Prince Albert, Weather by CustomWeather, © 2015

Note: Actual official high and low records may vary slightly from our data, if they occured in-between our weather recording intervals... More about our weather records

Advertising

Prince Albert weather history for previous 24 hours

 ConditionsComfort  
Time TempWeatherWind HumidityBarometerVisibility
6:00 PM
Sun, Apr 19
50 °FScattered clouds.16 mph24%30.11 "Hg15 mi
5:00 PM50 °FPassing clouds.21 mph22%30.11 "Hg15 mi
4:00 PM50 °FPassing clouds.21 mph19%30.12 "Hg15 mi
3:00 PM50 °FScattered clouds.21 mph13%30.14 "Hg15 mi
2:00 PM50 °FScattered clouds.21 mph28%30.15 "Hg15 mi
1:00 PM48 °FScattered clouds.14 mph34%30.16 "Hg15 mi
12:00 PM46 °FScattered clouds.15 mph50%30.18 "Hg15 mi
11:00 AM43 °FScattered clouds.15 mph61%30.19 "Hg15 mi
10:00 AM41 °FPartly sunny.18 mph66%30.20 "Hg15 mi
9:00 AM37 °FPartly sunny.16 mph75%30.21 "Hg15 mi
8:00 AM36 °FPartly sunny.22 mph81%30.20 "Hg15 mi
7:00 AM36 °FLight rain. Partly sunny.15 mph87%30.20 "Hg15 mi
6:00 AM34 °FLight rain. Overcast.13 mph93%30.19 "Hg10 mi
5:00 AM34 °FLight rain. Mostly cloudy.13 mph93%30.16 "Hg15 mi
4:00 AM36 °FLight rain. Overcast.16 mph87%30.16 "Hg15 mi
3:00 AM37 °FOvercast.17 mph81%30.14 "Hg15 mi
2:00 AM37 °FOvercast.16 mph81%30.12 "Hg15 mi
1:00 AM39 °FPassing clouds.14 mph81%30.11 "Hg15 mi
12:00 AM39 °FPassing clouds.15 mph81%30.09 "Hg15 mi
11:00 PM
Sat, Apr 18
39 °FOvercast.17 mph87%30.08 "Hg15 mi
10:00 PM39 °FLight rain. Mostly cloudy.14 mph87%30.07 "Hg10 mi
9:00 PM41 °FLight rain. Mostly cloudy.18 mph81%30.04 "Hg10 mi
8:00 PM45 °FCloudy.15 mph66%30.02 "Hg15 mi
7:00 PM46 °FBroken clouds.15 mph66%30.01 "Hg15 mi
Weather by CustomWeather, © 2015

See weather overviewHow to use our weather pages